Lid_Strength_Index
2 2 2 2 2 2 2 2 2 2 2 1 1 0 0 0 1 3 6 3 2 1 1 5 6 7 8 8 7 6 11 13 11 10 9 6 8 6 5 7 6 6 7 4 3
2 2 2 2 2 2 2 2 2 2 2 1 1 1 1 0 4 5 1 -1 -1 -1 7 8 9 8 11 10 10 9 13 11 7 7 8 6 6 6 6 7 7 6 6 6 3
2 2 2 2 2 2 2 2 2 1 2 2 2 1 1 1 5 4 -2 -2 -2 -1 5 7 8 10 12 11 11 10 11 9 8 7 6 7 6 5 6 7 6 7 7 7 6
2 2 2 2 2 2 2 2 2 2 2 1 2 2 1 3 10 4 -2 -3 -3 1 4 6 9 14 14 13 11 13 11 10 8 7 8 9 7 6 6 6 4 4 4 6 6
2 2 2 2 2 2 2 2 2 2 2 2 1 1 3 6 5 2 -3 -2 0 2 4 6 10 12 14 12 11 12 11 10 10 9 9 8 9 9 8 5 4 3 4 5 5
3 2 3 3 3 2 2 2 2 2 2 1 1 0 4 8 3 2 0 2 3 6 6 7 9 9 11 12 12 11 11 11 11 11 10 10 10 9 9 7 6 5 4 4 5
3 3 3 3 3 3 2 2 2 2 2 1 0 1 5 7 3 4 2 5 6 5 7 7 7 8 10 11 10 10 12 11 11 10 10 9 11 11 8 7 8 6 5 4 4
2 2 2 3 3 3 3 2 2 2 1 1 0 3 8 2 2 5 5 6 5 5 5 6 6 9 10 10 10 12 14 16 11 9 9 9 13 10 8 8 8 7 6 5 4
3 3 3 3 3 3 3 3 2 2 1 0 3 5 7 2 5 5 7 7 5 5 5 4 7 9 10 13 15 15 17 16 13 10 10 10 13 10 8 8 9 8 7 6 5
3 3 3 3 3 3 3 3 2 2 2 1 3 7 5 6 5 5 6 6 6 7 7 7 10 12 13 14 18 15 16 14 14 11 10 12 12 10 9 9 10 10 9 8 6
3 3 3 3 3 3 5 7 9 8 6 7 6 5 4 4 4 6 4 5 5 8 11 10 13 15 13 12 11 12 13 14 12 10 11 11 12 10 9 10 10 10 9 9 9
3 3 3 3 3 3 6 7 7 7 10 6 6 5 4 4 8 6 4 8 8 12 11 12 14 11 10 10 11 12 13 14 11 10 11 12 12 10 9 9 9 9 9 8 8
3 3 3 4 4 5 7 6 5 6 11 8 6 6 6 6 8 8 6 7 10 12 12 14 12 9 10 11 11 12 13 13 12 10 10 12 14 12 10 10 9 9 9 8 8
4 4 4 4 6 7 7 5 6 7 14 9 9 7 7 7 9 5 5 7 10 12 11 12 10 10 11 11 10 13 9 10 11 13 17 12 18 14 12 12 10 10 9 9 8
3 4 4 4 8 8 5 6 6 7 19 9 9 6 7 9 8 7 5 7 11 10 11 12 12 11 11 10 8 11 9 10 10 13 15 15 18 15 13 13 12 10 10 9 8
4 4 4 6 7 6 5 6 6 13 18 11 9 9 10 9 8 7 7 6 7 11 11 10 8 9 9 8 8 7 9 10 11 13 17 15 16 16 14 13 12 10 9 8 8
4 4 5 5 8 6 6 8 14 17 9 11 11 9 10 10 9 8 9 11 13 15 14 10 10 8 7 10 9 10 13 18 19 18 18 13 14 14 11 9 9 9 8 7 7
4 5 5 5 6 5 8 11 17 11 12 9 9 9 11 9 9 9 10 12 9 10 13 14 15 10 7 10 13 12 12 17 21 21 17 12 17 13 9 8 7 7 7 7 7
5 7 5 4 3 6 9 15 15 12 10 11 10 11 10 9 10 10 11 10 9 9 14 15 14 8 7 7 9 11 14 11 16 16 19 16 13 10 9 9 8 8 7 7 7
9 7 6 3 5 7 11 12 10 8 8 9 13 10 13 11 11 12 11 8 9 8 9 11 15 9 8 7 8 10 9 16 16 22 23 18 16 14 13 11 9 8 7 7 7
8 8 5 5 5 8 14 12 9 6 7 9 11 12 11 11 11 11 11 8 7 8 8 11 13 12 10 11 12 12 14 13 15 16 20 21 17 11 12 10 10 9 8 7 6
9 10 4 6 11 11 12 9 8 7 7 8 9 10 11 10 11 11 11 9 7 7 11 10 13 16 13 9 8 10 12 13 17 18 16 17 17 9 10 9 9 8 7 7 6
10 9 5 6 15 14 11 9 8 8 8 9 10 9 9 11 13 10 10 7 7 8 10 10 14 17 15 13 10 12 11 11 13 14 17 19 17 9 9 9 8 8 7 7 6
9 12 10 10 11 13 13 11 10 7 8 8 9 9 11 11 10 11 10 7 7 7 6 8 13 15 18 15 13 14 12 11 12 17 16 15 14 11 10 10 8 8 7 7 6
10 12 11 15 13 12 12 11 10 10 9 10 10 10 12 14 12 12 10 9 7 6 8 10 15 13 12 12 11 12 12 11 12 12 15 14 14 12 10 9 8 7 7 7 7
13 12 11 12 11 12 11 12 11 10 10 11 12 10 11 13 12 13 11 11 11 9 10 10 14 13 14 12 12 13 11 11 11 11 12 11 13 9 8 8 8 8 7 7 7
11 11 12 13 13 14 14 12 11 11 10 9 11 12 12 11 9 9 9 9 9 10 11 12 13 14 17 13 13 16 12 11 11 11 12 15 12 9 9 8 8 7 7 7 7